Station Historical Data
Daily Summary for April 12, 2017 Units:  English    Metric   Both
« Previous Day
Next Day »
Daily Weekly Monthly Yearly Custom
  High: Low: Average:
Temperature: 47.8 °F 38.3 °F 44.4 °F
Dew Point: 41.8 °F 33.3 °F 37.3 °F
Humidity: 87% 70% 76%
Wind Speed: 17.0mph 0.0mph 5.4mph
Wind Gust: 21.0mph - -
Wind- - WSW
Pressure: 30.44 in 30.15 in -
Precipitation: 0.00 in    
Historical Graphs
 
 
Tabular Data for April 12, 2017
Time Temperature Dew Point Pressure Wind Wind Speed Wind Gust Humidity Rainfall Rate (Hourly)
00:04 44.6 °F 41.0 °F 30.15 in SW 3.0 mph 7.0 mph 87% 0.00 in
00:09 44.5 °F 40.6 °F 30.15 in SW 4.0 mph 7.0 mph 86% 0.00 in
00:14 44.5 °F 40.9 °F 30.16 in SW 4.0 mph 8.0 mph 87% 0.00 in
00:19 44.5 °F 40.6 °F 30.15 in SW 3.0 mph 8.0 mph 86% 0.00 in
00:24 44.5 °F 40.9 °F 30.16 in SW 4.0 mph 8.0 mph 87% 0.00 in
00:29 44.6 °F 41.0 °F 30.16 in SW 3.0 mph 7.0 mph 87% 0.00 in
00:34 44.5 °F 40.9 °F 30.16 in SW 6.0 mph 8.0 mph 87% 0.00 in
00:39 44.5 °F 40.9 °F 30.16 in SW 2.0 mph 6.0 mph 87% 0.00 in
00:44 44.5 °F 40.9 °F 30.16 in SW 3.0 mph 6.0 mph 87% 0.00 in
00:49 44.4 °F 40.8 °F 30.16 in SW 2.0 mph 5.0 mph 87% 0.00 in
00:54 44.4 °F 40.8 °F 30.16 in SW 2.0 mph 6.0 mph 87% 0.00 in
00:59 44.4 °F 40.8 °F 30.16 in SW 3.0 mph 6.0 mph 87% 0.00 in
01:04 44.5 °F 40.9 °F 30.17 in SW 3.0 mph 6.0 mph 87% 0.00 in
01:09 44.6 °F 41.0 °F 30.16 in SW 1.0 mph 5.0 mph 87% 0.00 in
01:14 44.7 °F 41.1 °F 30.16 in Calm   2.0 mph 87% 0.00 in
01:19 44.8 °F 41.2 °F 30.16 in Calm     87% 0.00 in
01:24 44.9 °F 41.3 °F 30.16 in Calm   3.0 mph 87% 0.00 in
01:29 45.0 °F 41.4 °F 30.16 in SW 1.0 mph 3.0 mph 87% 0.00 in
01:34 45.1 °F 41.5 °F 30.16 in WSW 1.0 mph 3.0 mph 87% 0.00 in
01:39 45.3 °F 41.7 °F 30.17 in WSW 1.0 mph 4.0 mph 87% 0.00 in
01:44 45.4 °F 41.8 °F 30.17 in SSW 3.0 mph 3.0 mph 87% 0.00 in
01:49 45.3 °F 41.7 °F 30.16 in SSW 2.0 mph 4.0 mph 87% 0.00 in
01:54 45.3 °F 41.7 °F 30.16 in Calm   4.0 mph 87% 0.00 in
01:59 45.3 °F 41.7 °F 30.17 in SSW 2.0 mph 5.0 mph 87% 0.00 in
02:04 45.5 °F 41.6 °F 30.17 in SW 4.0 mph 6.0 mph 86% 0.00 in
02:09 45.7 °F 41.8 °F 30.17 in South 4.0 mph 6.0 mph 86% 0.00 in
02:14 46.0 °F 41.7 °F 30.17 in SW 4.0 mph 6.0 mph 85% 0.00 in
02:19 46.3 °F 41.4 °F 30.17 in SW 3.0 mph 7.0 mph 83% 0.00 in
02:24 46.6 °F 41.4 °F 30.17 in WSW 3.0 mph 7.0 mph 82% 0.00 in
02:29 46.8 °F 41.0 °F 30.17 in WSW 3.0 mph 5.0 mph 80% 0.00 in
02:34 46.9 °F 41.1 °F 30.17 in WSW 3.0 mph 5.0 mph 80% 0.00 in
02:39 47.0 °F 41.1 °F 30.17 in SW 3.0 mph 4.0 mph 80% 0.00 in
02:44 47.0 °F 41.1 °F 30.17 in WSW 1.0 mph 4.0 mph 80% 0.00 in
02:49 47.1 °F 41.2 °F 30.17 in WSW 4.0 mph 6.0 mph 80% 0.00 in
02:54 47.1 °F 40.6 °F 30.17 in WSW 3.0 mph 9.0 mph 78% 0.00 in
02:59 47.2 °F 40.0 °F 30.17 in WSW 5.0 mph 9.0 mph 76% 0.00 in
03:04 47.4 °F 39.9 °F 30.17 in NNW 3.0 mph 10.0 mph 75% 0.00 in
03:09 47.6 °F 39.7 °F 30.17 in West 5.0 mph 12.0 mph 74% 0.00 in
03:14 47.7 °F 39.8 °F 30.17 in West 5.0 mph 12.0 mph 74% 0.00 in
03:19 47.8 °F 39.9 °F 30.18 in WSW 4.0 mph 8.0 mph 74% 0.00 in
03:24 47.8 °F 39.9 °F 30.17 in SW 4.0 mph 8.0 mph 74% 0.00 in
03:29 47.5 °F 40.0 °F 30.17 in SW 3.0 mph 8.0 mph 75% 0.00 in
03:34 47.3 °F 39.8 °F 30.17 in West 3.0 mph 7.0 mph 75% 0.00 in
03:39 47.0 °F 39.8 °F 30.17 in WSW 4.0 mph 7.0 mph 76% 0.00 in
03:44 46.7 °F 39.5 °F 30.17 in WSW 4.0 mph 8.0 mph 76% 0.00 in
03:49 46.6 °F 39.4 °F 30.17 in WSW 4.0 mph 8.0 mph 76% 0.00 in
03:54 46.5 °F 39.3 °F 30.17 in WSW 4.0 mph 8.0 mph 76% 0.00 in
03:59 46.4 °F 39.6 °F 30.17 in SW 3.0 mph 6.0 mph 77% 0.00 in
04:04 46.2 °F 39.4 °F 30.17 in WSW 3.0 mph 6.0 mph 77% 0.00 in
04:09 46.2 °F 39.4 °F 30.17 in WSW 3.0 mph 6.0 mph 77% 0.00 in
04:14 46.1 °F 39.3 °F 30.17 in SW 3.0 mph 6.0 mph 77% 0.00 in
04:19 46.0 °F 39.2 °F 30.18 in WSW 4.0 mph 7.0 mph 77% 0.00 in
04:24 45.9 °F 39.4 °F 30.18 in WSW 4.0 mph 6.0 mph 78% 0.00 in
04:29 45.8 °F 39.0 °F 30.18 in WSW 8.0 mph 9.0 mph 77% 0.00 in
04:34 45.6 °F 38.8 °F 30.18 in WSW 4.0 mph 9.0 mph 77% 0.00 in
04:39 45.6 °F 39.1 °F 30.18 in WSW 5.0 mph 7.0 mph 78% 0.00 in
04:44 45.5 °F 39.0 °F 30.18 in WSW 3.0 mph 8.0 mph 78% 0.00 in
04:49 45.6 °F 39.1 °F 30.18 in WSW 3.0 mph 8.0 mph 78% 0.00 in
04:54 45.5 °F 39.0 °F 30.18 in WSW 4.0 mph 7.0 mph 78% 0.00 in
04:59 45.5 °F 39.0 °F 30.18 in WSW 4.0 mph 7.0 mph 78% 0.00 in
05:04 45.4 °F 38.9 °F 30.18 in WSW 3.0 mph 7.0 mph 78% 0.00 in
05:09 45.4 °F 38.9 °F 30.18 in WSW 3.0 mph 6.0 mph 78% 0.00 in
05:14 45.4 °F 38.9 °F 30.18 in West 1.0 mph 6.0 mph 78% 0.00 in
05:19 45.4 °F 38.9 °F 30.18 in West 3.0 mph 6.0 mph 78% 0.00 in
05:24 45.3 °F 38.5 °F 30.18 in WSW 3.0 mph 7.0 mph 77% 0.00 in
05:29 45.4 °F 38.6 °F 30.19 in West 4.0 mph 6.0 mph 77% 0.00 in
05:34 45.4 °F 38.3 °F 30.19 in West 4.0 mph 10.0 mph 76% 0.00 in
05:39 45.5 °F 38.0 °F 30.19 in West 5.0 mph 12.0 mph 75% 0.00 in
05:44 45.5 °F 38.0 °F 30.20 in WNW 3.0 mph 12.0 mph 75% 0.00 in
05:49 45.5 °F 37.7 °F 30.20 in West 6.0 mph 14.0 mph 74% 0.00 in
05:54 45.4 °F 37.6 °F 30.20 in West 6.0 mph 14.0 mph 74% 0.00 in
05:59 45.4 °F 37.2 °F 30.20 in West 6.0 mph 12.0 mph 73% 0.00 in
06:04 45.3 °F 37.2 °F 30.20 in West 11.0 mph 14.0 mph 73% 0.00 in
06:09 45.2 °F 37.1 °F 30.21 in West 10.0 mph 14.0 mph 73% 0.00 in
06:14 45.2 °F 36.7 °F 30.21 in WNW 2.0 mph 13.0 mph 72% 0.00 in
06:19 45.1 °F 36.6 °F 30.21 in West 7.0 mph 13.0 mph 72% 0.00 in
06:24 45.0 °F 36.5 °F 30.22 in WNW 5.0 mph 11.0 mph 72% 0.00 in
06:29 44.9 °F 36.4 °F 30.22 in WSW 8.0 mph 15.0 mph 72% 0.00 in
06:34 44.9 °F 36.4 °F 30.23 in West 2.0 mph 9.0 mph 72% 0.00 in
06:39 44.8 °F 36.3 °F 30.23 in West 7.0 mph 11.0 mph 72% 0.00 in
06:44 44.9 °F 36.8 °F 30.23 in WNW 4.0 mph 8.0 mph 73% 0.00 in
06:49 44.8 °F 36.7 °F 30.23 in West 4.0 mph 8.0 mph 73% 0.00 in
06:54 44.8 °F 36.7 °F 30.23 in WNW 4.0 mph 8.0 mph 73% 0.00 in
06:59 44.7 °F 36.6 °F 30.24 in WNW 5.0 mph 14.0 mph 73% 0.00 in
07:04 44.6 °F 36.5 °F 30.24 in WNW 6.0 mph 14.0 mph 73% 0.00 in
07:09 44.5 °F 36.4 °F 30.24 in WSW 5.0 mph 13.0 mph 73% 0.00 in
07:14 44.5 °F 36.4 °F 30.24 in West 6.0 mph 14.0 mph 73% 0.00 in
07:19 44.5 °F 36.4 °F 30.24 in West 6.0 mph 14.0 mph 73% 0.00 in
07:24 44.4 °F 36.3 °F 30.24 in West 5.0 mph 13.0 mph 73% 0.00 in
07:29 44.4 °F 36.3 °F 30.25 in WNW 4.0 mph 10.0 mph 73% 0.00 in
07:34 44.3 °F 36.2 °F 30.25 in WNW 8.0 mph 11.0 mph 73% 0.00 in
07:39 44.3 °F 36.2 °F 30.25 in WSW 8.0 mph 12.0 mph 73% 0.00 in
07:44 44.3 °F 36.2 °F 30.25 in WNW 8.0 mph 11.0 mph 73% 0.00 in
07:49 44.3 °F 36.2 °F 30.26 in West 5.0 mph 11.0 mph 73% 0.00 in
07:54 44.3 °F 36.2 °F 30.26 in West 4.0 mph 10.0 mph 73% 0.00 in
07:59 44.3 °F 36.2 °F 30.26 in West 4.0 mph 12.0 mph 73% 0.00 in
08:04 44.3 °F 36.2 °F 30.26 in West 5.0 mph 12.0 mph 73% 0.00 in
08:09 44.3 °F 36.2 °F 30.26 in West 6.0 mph 11.0 mph 73% 0.00 in
08:14 44.4 °F 36.3 °F 30.26 in West 6.0 mph 10.0 mph 73% 0.00 in
08:19 44.4 °F 36.3 °F 30.27 in WNW 5.0 mph 10.0 mph 73% 0.00 in
08:24 44.5 °F 36.4 °F 30.27 in WNW 3.0 mph 10.0 mph 73% 0.00 in
08:29 44.6 °F 36.5 °F 30.26 in West 7.0 mph 10.0 mph 73% 0.00 in
08:34 44.6 °F 36.5 °F 30.27 in WNW 5.0 mph 11.0 mph 73% 0.00 in
08:39 44.6 °F 36.5 °F 30.27 in WNW 8.0 mph 10.0 mph 73% 0.00 in
08:44 44.5 °F 36.4 °F 30.27 in WNW 6.0 mph 9.0 mph 73% 0.00 in
08:49 44.5 °F 36.4 °F 30.27 in West 5.0 mph 9.0 mph 73% 0.00 in
08:54 44.6 °F 36.5 °F 30.27 in West 5.0 mph 10.0 mph 73% 0.00 in
08:59 44.7 °F 36.6 °F 30.27 in West 4.0 mph 10.0 mph 73% 0.00 in
09:04 44.8 °F 36.7 °F 30.27 in West 4.0 mph 8.0 mph 73% 0.00 in
09:09 44.9 °F 36.8 °F 30.27 in West 5.0 mph 9.0 mph 73% 0.00 in
09:14 45.0 °F 37.2 °F 30.27 in West 7.0 mph 10.0 mph 74% 0.00 in
09:19 45.1 °F 37.0 °F 30.28 in West 3.0 mph 9.0 mph 73% 0.00 in
09:24 45.0 °F 36.9 °F 30.28 in West 5.0 mph 11.0 mph 73% 0.00 in
09:29 45.0 °F 36.9 °F 30.28 in West 5.0 mph 11.0 mph 73% 0.00 in
09:34 45.0 °F 36.9 °F 30.28 in WNW 6.0 mph 8.0 mph 73% 0.00 in
09:39 45.2 °F 37.1 °F 30.29 in WNW 7.0 mph 9.0 mph 73% 0.00 in
09:44 44.9 °F 36.4 °F 30.29 in NW 4.0 mph 10.0 mph 72% 0.00 in
09:49 44.8 °F 36.7 °F 30.29 in West 6.0 mph 11.0 mph 73% 0.00 in
09:54 44.9 °F 36.8 °F 30.29 in West 6.0 mph 11.0 mph 73% 0.00 in
09:59 45.0 °F 36.5 °F 30.29 in West 6.0 mph 12.0 mph 72% 0.00 in
10:04 45.0 °F 36.5 °F 30.29 in West 6.0 mph 12.0 mph 72% 0.00 in
10:09 45.0 °F 36.5 °F 30.29 in WSW 3.0 mph 13.0 mph 72% 0.00 in
10:14 45.2 °F 36.7 °F 30.29 in WNW 4.0 mph 9.0 mph 72% 0.00 in
10:19 45.2 °F 36.4 °F 30.29 in WNW 6.0 mph 10.0 mph 71% 0.00 in
10:24 45.4 °F 36.5 °F 30.29 in West 5.0 mph 12.0 mph 71% 0.00 in
10:29 45.3 °F 36.1 °F 30.29 in West 6.0 mph 12.0 mph 70% 0.00 in
10:34 45.4 °F 36.5 °F 30.29 in West 6.0 mph 10.0 mph 71% 0.00 in
10:39 45.4 °F 36.2 °F 30.30 in WNW 11.0 mph 11.0 mph 70% 0.00 in
10:44 45.3 °F 36.4 °F 30.30 in West 5.0 mph 12.0 mph 71% 0.00 in
10:49 45.4 °F 36.5 °F 30.30 in WSW 3.0 mph 10.0 mph 71% 0.00 in
10:54 45.4 °F 36.9 °F 30.30 in WSW 5.0 mph 11.0 mph 72% 0.00 in
10:59 45.3 °F 36.8 °F 30.30 in WSW 6.0 mph 11.0 mph 72% 0.00 in
11:04 45.2 °F 36.7 °F 30.30 in WSW 6.0 mph 11.0 mph 72% 0.00 in
11:09 45.4 °F 36.9 °F 30.30 in WSW 6.0 mph 11.0 mph 72% 0.00 in
11:14 45.3 °F 36.8 °F 30.30 in SW 4.0 mph 11.0 mph 72% 0.00 in
11:19 45.4 °F 36.9 °F 30.30 in WSW 5.0 mph 10.0 mph 72% 0.00 in
11:24 45.2 °F 36.4 °F 30.30 in WSW 7.0 mph 13.0 mph 71% 0.00 in
11:29 45.8 °F 36.9 °F 30.31 in WSW 6.0 mph 13.0 mph 71% 0.00 in
11:34 45.2 °F 36.7 °F 30.31 in WSW 6.0 mph 13.0 mph 72% 0.00 in
11:39 45.1 °F 37.0 °F 30.31 in WSW 5.0 mph 9.0 mph 73% 0.00 in
11:44 45.5 °F 37.3 °F 30.31 in SW 7.0 mph 12.0 mph 73% 0.00 in
11:49 45.3 °F 36.8 °F 30.32 in WNW 8.0 mph 13.0 mph 72% 0.00 in
11:54 44.5 °F 36.7 °F 30.32 in WSW 7.0 mph 14.0 mph 74% 0.00 in
11:59 44.2 °F 36.4 °F 30.32 in WSW 8.0 mph 14.0 mph 74% 0.00 in
12:04 44.1 °F 36.7 °F 30.32 in WSW 7.0 mph 15.0 mph 75% 0.00 in
12:09 44.2 °F 36.8 °F 30.32 in WSW 6.0 mph 16.0 mph 75% 0.00 in
12:14 44.3 °F 36.5 °F 30.32 in SW 7.0 mph 13.0 mph 74% 0.00 in
12:19 44.0 °F 35.9 °F 30.32 in WSW 7.0 mph 16.0 mph 73% 0.00 in
12:24 43.9 °F 35.8 °F 30.32 in WSW 9.0 mph 16.0 mph 73% 0.00 in
12:29 44.0 °F 35.9 °F 30.33 in WSW 8.0 mph 14.0 mph 73% 0.00 in
12:34 43.8 °F 36.0 °F 30.33 in WSW 8.0 mph 15.0 mph 74% 0.00 in
12:39 43.9 °F 36.1 °F 30.33 in West 8.0 mph 16.0 mph 74% 0.00 in
12:44 44.0 °F 36.2 °F 30.33 in WSW 4.0 mph 12.0 mph 74% 0.00 in
12:49 44.0 °F 36.2 °F 30.33 in West 10.0 mph 18.0 mph 74% 0.00 in
12:54 44.0 °F 36.6 °F 30.33 in WSW 9.0 mph 19.0 mph 75% 0.00 in
12:59 44.0 °F 36.6 °F 30.33 in WSW 8.0 mph 19.0 mph 75% 0.00 in
13:04 44.0 °F 36.6 °F 30.33 in NW 6.0 mph 16.0 mph 75% 0.00 in
13:09 44.3 °F 36.9 °F 30.33 in SSW 7.0 mph 12.0 mph 75% 0.00 in
13:14 44.6 °F 36.8 °F 30.33 in WSW 11.0 mph 16.0 mph 74% 0.00 in
13:19 44.5 °F 36.7 °F 30.33 in WSW 11.0 mph 18.0 mph 74% 0.00 in
13:24 44.6 °F 36.5 °F 30.33 in WSW 9.0 mph 18.0 mph 73% 0.00 in
13:29 45.0 °F 37.2 °F 30.33 in WSW 9.0 mph 15.0 mph 74% 0.00 in
13:34 45.3 °F 37.2 °F 30.33 in WSW 7.0 mph 14.0 mph 73% 0.00 in
13:39 45.0 °F 36.9 °F 30.33 in SW 11.0 mph 17.0 mph 73% 0.00 in
13:44 44.6 °F 36.5 °F 30.33 in West 8.0 mph 13.0 mph 73% 0.00 in
13:49 44.6 °F 36.5 °F 30.33 in SW 5.0 mph 13.0 mph 73% 0.00 in
13:54 44.3 °F 36.2 °F 30.33 in SW 8.0 mph 16.0 mph 73% 0.00 in
13:59 44.3 °F 36.5 °F 30.33 in SW 9.0 mph 16.0 mph 74% 0.00 in
14:04 44.4 °F 36.3 °F 30.33 in SW 9.0 mph 17.0 mph 73% 0.00 in
14:09 44.6 °F 36.8 °F 30.33 in SE 5.0 mph 18.0 mph 74% 0.00 in
14:14 45.0 °F 36.9 °F 30.33 in West 4.0 mph 16.0 mph 73% 0.00 in
14:19 45.2 °F 36.7 °F 30.33 in West 5.0 mph 16.0 mph 72% 0.00 in
14:24 45.2 °F 36.7 °F 30.34 in West 9.0 mph 20.0 mph 72% 0.00 in
14:29 45.7 °F 37.5 °F 30.34 in WSW 10.0 mph 20.0 mph 73% 0.00 in
14:34 46.7 °F 37.8 °F 30.34 in WSW 10.0 mph 18.0 mph 71% 0.00 in
14:39 46.2 °F 37.3 °F 30.34 in WSW 8.0 mph 18.0 mph 71% 0.00 in
14:44 45.7 °F 36.8 °F 30.33 in WSW 8.0 mph 18.0 mph 71% 0.00 in
14:49 45.4 °F 36.9 °F 30.33 in WSW 12.0 mph 15.0 mph 72% 0.00 in
14:54 45.8 °F 37.6 °F 30.33 in SSW 5.0 mph 16.0 mph 73% 0.00 in
14:59 46.8 °F 37.5 °F 30.33 in West 17.0 mph 17.0 mph 70% 0.00 in
15:04 46.7 °F 37.4 °F 30.33 in SW 11.0 mph 19.0 mph 70% 0.00 in
15:09 46.2 °F 37.0 °F 30.33 in West 10.0 mph 15.0 mph 70% 0.00 in
15:14 45.7 °F 36.8 °F 30.33 in WSW 6.0 mph 20.0 mph 71% 0.00 in
15:19 46.2 °F 37.3 °F 30.33 in WSW 12.0 mph 16.0 mph 71% 0.00 in
15:24 46.7 °F 37.8 °F 30.33 in West 7.0 mph 16.0 mph 71% 0.00 in
15:29 46.0 °F 36.8 °F 30.34 in WSW 9.0 mph 17.0 mph 70% 0.00 in
15:34 45.4 °F 36.9 °F 30.34 in WSW 8.0 mph 17.0 mph 72% 0.00 in
15:39 45.0 °F 36.5 °F 30.34 in WSW 9.0 mph 15.0 mph 72% 0.00 in
15:44 44.6 °F 36.5 °F 30.34 in WSW 10.0 mph 19.0 mph 73% 0.00 in
15:49 44.4 °F 36.6 °F 30.34 in SW 9.0 mph 19.0 mph 74% 0.00 in
15:54 44.6 °F 36.8 °F 30.34 in WSW 8.0 mph 19.0 mph 74% 0.00 in
16:04 44.6 °F 36.5 °F 30.34 in WSW 10.0 mph 13.0 mph 73% 0.00 in
16:09 44.5 °F 36.4 °F 30.34 in West 6.0 mph 19.0 mph 73% 0.00 in
16:14 44.4 °F 36.6 °F 30.34 in WSW 10.0 mph 13.0 mph 74% 0.00 in
16:19 44.3 °F 36.5 °F 30.35 in SW 6.0 mph 13.0 mph 74% 0.00 in
16:24 44.2 °F 36.4 °F 30.34 in SW 9.0 mph 18.0 mph 74% 0.00 in
16:29 44.2 °F 36.4 °F 30.34 in WSW 8.0 mph 18.0 mph 74% 0.00 in
16:34 44.2 °F 36.4 °F 30.34 in WSW 8.0 mph 21.0 mph 74% 0.00 in
16:39 44.5 °F 36.7 °F 30.34 in WSW 7.0 mph 21.0 mph 74% 0.00 in
16:44 44.4 °F 36.3 °F 30.35 in WNW 6.0 mph 17.0 mph 73% 0.00 in
16:49 44.6 °F 36.5 °F 30.35 in West 8.0 mph 15.0 mph 73% 0.00 in
16:54 44.8 °F 36.7 °F 30.35 in SW 8.0 mph 16.0 mph 73% 0.00 in
16:59 44.7 °F 36.6 °F 30.35 in WSW 8.0 mph 18.0 mph 73% 0.00 in
17:04 44.6 °F 36.1 °F 30.35 in WSW 9.0 mph 18.0 mph 72% 0.00 in
17:09 44.9 °F 36.4 °F 30.35 in WSW 9.0 mph 18.0 mph 72% 0.00 in
17:14 44.7 °F 36.2 °F 30.35 in WSW 8.0 mph 17.0 mph 72% 0.00 in
17:19 44.6 °F 36.5 °F 30.35 in WSW 6.0 mph 11.0 mph 73% 0.00 in
17:24 44.4 °F 35.9 °F 30.35 in West 9.0 mph 14.0 mph 72% 0.00 in
17:29 44.2 °F 36.1 °F 30.35 in WSW 8.0 mph 16.0 mph 73% 0.00 in
17:34 44.2 °F 36.4 °F 30.35 in WSW 8.0 mph 16.0 mph 74% 0.00 in
17:39 44.2 °F 36.1 °F 30.35 in West 7.0 mph 18.0 mph 73% 0.00 in
17:44 44.2 °F 36.4 °F 30.35 in West 5.0 mph 17.0 mph 74% 0.00 in
17:49 44.3 °F 36.5 °F 30.35 in South 8.0 mph 16.0 mph 74% 0.00 in
17:54 44.3 °F 36.5 °F 30.35 in SSW 7.0 mph 16.0 mph 74% 0.00 in
17:59 44.4 °F 36.6 °F 30.35 in West 5.0 mph 13.0 mph 74% 0.00 in
18:04 44.5 °F 36.4 °F 30.35 in WSW 7.0 mph 15.0 mph 73% 0.00 in
18:09 44.2 °F 36.4 °F 30.35 in WSW 8.0 mph 16.0 mph 74% 0.00 in
18:14 44.1 °F 36.3 °F 30.35 in WSW 9.0 mph 17.0 mph 74% 0.00 in
18:19 44.2 °F 36.8 °F 30.36 in WSW 8.0 mph 17.0 mph 75% 0.00 in
18:24 44.1 °F 36.3 °F 30.36 in WSW 7.0 mph 14.0 mph 74% 0.00 in
18:29 43.7 °F 36.3 °F 30.36 in West 5.0 mph 16.0 mph 75% 0.00 in
18:34 43.7 °F 36.3 °F 30.36 in WSW 8.0 mph 16.0 mph 75% 0.00 in
18:39 43.8 °F 36.4 °F 30.36 in SW 5.0 mph 11.0 mph 75% 0.00 in
18:44 43.8 °F 36.4 °F 30.36 in West 16.0 mph 16.0 mph 75% 0.00 in
18:49 43.6 °F 36.5 °F 30.36 in WSW 6.0 mph 18.0 mph 76% 0.00 in
18:54 43.4 °F 36.3 °F 30.37 in West 11.0 mph 17.0 mph 76% 0.00 in
18:59 43.3 °F 36.2 °F 30.37 in WSW 7.0 mph 16.0 mph 76% 0.00 in
19:04 43.2 °F 36.5 °F 30.37 in WSW 7.0 mph 16.0 mph 77% 0.00 in
19:09 43.1 °F 36.4 °F 30.37 in WSW 7.0 mph 13.0 mph 77% 0.00 in
19:14 42.9 °F 36.2 °F 30.37 in WSW 7.0 mph 13.0 mph 77% 0.00 in
19:19 43.0 °F 36.3 °F 30.37 in WSW 7.0 mph 12.0 mph 77% 0.00 in
19:24 43.0 °F 36.3 °F 30.37 in WSW 6.0 mph 10.0 mph 77% 0.00 in
19:29 42.9 °F 36.2 °F 30.38 in SW 10.0 mph 15.0 mph 77% 0.00 in
19:34 42.9 °F 36.5 °F 30.38 in West 6.0 mph 17.0 mph 78% 0.00 in
19:39 42.8 °F 36.4 °F 30.38 in WSW 8.0 mph 17.0 mph 78% 0.00 in
19:44 42.8 °F 36.4 °F 30.38 in West 5.0 mph 13.0 mph 78% 0.00 in
19:49 42.9 °F 36.5 °F 30.38 in WSW 4.0 mph 13.0 mph 78% 0.00 in
19:54 42.9 °F 36.5 °F 30.38 in SW 7.0 mph 11.0 mph 78% 0.00 in
19:59 43.0 °F 36.6 °F 30.39 in WSW 3.0 mph 11.0 mph 78% 0.00 in
20:04 43.1 °F 36.4 °F 30.39 in WSW 6.0 mph 11.0 mph 77% 0.00 in
20:09 43.1 °F 36.4 °F 30.39 in WSW 6.0 mph 11.0 mph 77% 0.00 in
20:14 43.1 °F 36.4 °F 30.39 in WSW 6.0 mph 12.0 mph 77% 0.00 in
20:19 43.1 °F 36.4 °F 30.40 in WSW 6.0 mph 16.0 mph 77% 0.00 in
20:24 43.0 °F 36.6 °F 30.40 in SSW 8.0 mph 12.0 mph 78% 0.00 in
20:29 42.9 °F 36.5 °F 30.40 in WSW 4.0 mph 12.0 mph 78% 0.00 in
20:34 42.7 °F 36.3 °F 30.40 in WSW 5.0 mph 12.0 mph 78% 0.00 in
20:39 42.5 °F 36.1 °F 30.40 in WSW 5.0 mph 9.0 mph 78% 0.00 in
20:44 42.5 °F 36.1 °F 30.41 in West 5.0 mph 9.0 mph 78% 0.00 in
20:49 42.5 °F 36.1 °F 30.41 in WSW 4.0 mph 10.0 mph 78% 0.00 in
20:54 42.4 °F 36.0 °F 30.41 in WSW 4.0 mph 8.0 mph 78% 0.00 in
20:59 42.3 °F 35.9 °F 30.41 in WSW 5.0 mph 9.0 mph 78% 0.00 in
21:04 42.2 °F 35.8 °F 30.42 in WSW 5.0 mph 9.0 mph 78% 0.00 in
21:09 42.2 °F 35.8 °F 30.43 in WSW 4.0 mph 8.0 mph 78% 0.00 in
21:14 42.0 °F 36.0 °F 30.42 in WSW 5.0 mph 9.0 mph 79% 0.00 in
21:19 42.0 °F 36.0 °F 30.43 in WSW 4.0 mph 9.0 mph 79% 0.00 in
21:24 42.0 °F 36.0 °F 30.43 in WSW 4.0 mph 6.0 mph 79% 0.00 in
21:29 42.0 °F 36.0 °F 30.43 in WSW 5.0 mph 7.0 mph 79% 0.00 in
21:34 41.9 °F 35.9 °F 30.43 in WSW 4.0 mph 7.0 mph 79% 0.00 in
21:39 41.9 °F 35.9 °F 30.43 in WSW 4.0 mph 8.0 mph 79% 0.00 in
21:44 41.8 °F 35.8 °F 30.43 in WSW 4.0 mph 9.0 mph 79% 0.00 in
21:49 41.8 °F 35.8 °F 30.43 in WSW 2.0 mph 7.0 mph 79% 0.00 in
21:54 41.6 °F 35.9 °F 30.43 in WSW 3.0 mph 7.0 mph 80% 0.00 in
21:59 41.6 °F 35.9 °F 30.43 in West 2.0 mph 6.0 mph 80% 0.00 in
22:04 41.3 °F 35.6 °F 30.43 in WSW 3.0 mph 6.0 mph 80% 0.00 in
22:09 41.4 °F 35.7 °F 30.43 in WSW 3.0 mph 7.0 mph 80% 0.00 in
22:14 41.4 °F 35.7 °F 30.43 in WSW 3.0 mph 7.0 mph 80% 0.00 in
22:19 41.4 °F 35.4 °F 30.44 in WSW 3.0 mph 4.0 mph 79% 0.00 in
22:24 41.3 °F 35.3 °F 30.44 in West 3.0 mph 7.0 mph 79% 0.00 in
22:29 41.3 °F 35.3 °F 30.44 in West 2.0 mph 6.0 mph 79% 0.00 in
22:34 41.2 °F 35.2 °F 30.43 in West 3.0 mph 7.0 mph 79% 0.00 in
22:39 41.2 °F 35.2 °F 30.43 in WSW 2.0 mph 7.0 mph 79% 0.00 in
22:44 41.1 °F 35.1 °F 30.44 in WSW 2.0 mph 5.0 mph 79% 0.00 in
22:49 41.1 °F 35.1 °F 30.44 in WSW 2.0 mph 7.0 mph 79% 0.00 in
22:54 41.0 °F 35.0 °F 30.44 in WSW 2.0 mph 6.0 mph 79% 0.00 in
22:59 40.9 °F 34.9 °F 30.44 in WSW 2.0 mph 4.0 mph 79% 0.00 in
23:04 40.8 °F 34.8 °F 30.43 in WSW 1.0 mph 5.0 mph 79% 0.00 in
23:09 40.5 °F 34.5 °F 30.43 in WSW 2.0 mph 5.0 mph 79% 0.00 in
23:14 40.4 °F 34.7 °F 30.44 in WSW 2.0 mph 5.0 mph 80% 0.00 in
23:19 40.5 °F 34.8 °F 30.43 in WSW 3.0 mph 5.0 mph 80% 0.00 in
23:24 40.3 °F 34.6 °F 30.44 in West 2.0 mph 5.0 mph 80% 0.00 in
23:29 40.1 °F 34.4 °F 30.44 in West 2.0 mph 4.0 mph 80% 0.00 in
23:34 39.8 °F 34.4 °F 30.44 in West 4.0 mph 4.0 mph 81% 0.00 in
23:39 39.5 °F 34.2 °F 30.44 in West 2.0 mph 4.0 mph 81% 0.00 in
23:44 39.2 °F 33.9 °F 30.44 in West 1.0 mph 4.0 mph 81% 0.00 in
23:49 38.6 °F 33.6 °F 30.44 in West 1.0 mph 2.0 mph 82% 0.00 in
23:54 38.4 °F 33.4 °F 30.44 in Calm   1.0 mph 82% 0.00 in
23:59 38.3 °F 33.3 °F 30.44 in West 3.0 mph 3.0 mph 82% 0.00 in
Buffalo, New York, USA
Compliments of Weather Underground - 2.5 mb